User: anonymous   Login
Location: Summit Observatory
(39.5293°N, 75.7290°W)
Time: 17:43:09
(UTC-04:00)
Language:

Gurwin Techsat 1B - Orbit

View from above orbital plane
View from above orbital plane
View from above satellite
View from above satellite

Ground track
Ground track

The orbit data is extracted from the following two-line orbital elements,

1 25397U 98043D   14294.48668262  .00000123  00000-0  72785-4 0  4806
2 25397 098.4864 247.8614 0000480 014.7163 105.9440 14.23472381845839
Epoch (UTC): 21 October 2014 11:40:49
Eccentricity: 0.0000480
inclination: 98.4864°
perigee height: 813 km
apogee height: 814 km
right ascension of ascending node: 247.8614°
argument of perigee: 14.7163°
revolutions per day: 14.23472381
mean anomaly at epoch: 105.9440°
orbit number at epoch: 84583

The dashed part of the orbit path shows where the satellite is in the earth's shadow,  

DLR